Volver al catálogo

NIMBUS 2 DEB

ActivoLEO
NORAD 40645·DEBRIS·🇺🇸 United States

Lanzado May 15, 1966 desde Vandenberg Space Force Base

Loading…

Próximos Pases (próximas 24 horas)

TLE

EnvejeciendoSource: Space-Track

Época: Sep 11, 2026, 15:15 UTC

1 40645U 66040BJ  26254.63581075 -.00000126  00000-0 -12970-3 0  9992
2 40645 100.4127 138.4875 0049865 345.1015  14.8643 13.45376557554537

Sigue NIMBUS 2 DEB en tiempo real con AllMySat

Download on the App Store